Location: Tomaszow Mazowiecki
(51.5330°N, 20.0170°E)
Time: 23:47:37
(UTC+01:00)

Envisat - Pass Details

Date: 05 December 2023
Orbit: 762 x 764 km, 98.3° (Epoch: 21 February)

Event Time Altitude Azimuth Distance (km) Brightness Sun altitude
Rises 04:14:37 0° 10° (N) 3,245 6.4 -28.9°
Reaches altitude 10° 04:17:02 10° 3° (N) 2,314 5.5 -28.6°
Enters shadow 04:17:15 11° 2° (N) 2,229 5.4 -28.5°
